Wind_Speed
23 23 23 25 25 25 25 25 26 25 26 26 27 29 31 34 36 38 38 38 37 39 40 39 38 38 38 37 37 37 35 32 32 32 31 30 31 33 34 35 38 39 41
26 26 27 27 28 28 28 28 29 29 29 30 30 32 34 36 39 40 40 40 40 40 37 34 33 33 33 34 34 33 32 31 30 31 32 32 33 34 36 38 40 42 44
30 30 30 30 30 30 30 31 31 31 31 32 33 34 37 39 41 41 42 43 41 37 35 31 29 27 27 28 28 29 30 30 30 32 33 35 38 39 40 41 44 46 48
32 32 32 32 31 31 31 32 32 33 33 34 35 37 39 40 42 43 42 42 42 39 34 32 30 28 27 28 28 29 30 31 33 35 37 40 42 45 46 47 48 50 52
34 33 33 32 31 31 32 33 34 35 36 37 38 39 41 42 43 42 42 42 41 39 34 32 32 32 31 32 32 32 33 35 38 39 41 44 47 49 51 53 55 56 57
36 34 33 32 31 32 33 34 36 37 38 39 40 41 42 42 42 42 42 42 42 39 36 37 36 35 35 35 36 38 39 41 43 45 47 49 51 54 55 57 58 60 61
34 33 32 32 32 33 34 36 37 38 39 40 41 42 42 42 42 42 42 41 41 41 40 39 38 39 39 40 42 43 44 46 48 50 52 53 55 57 59 60 61 62 64
31 30 30 30 31 32 33 34 36 37 38 40 41 41 42 42 42 42 42 42 42 42 43 43 43 44 45 46 47 48 49 51 52 54 55 57 58 60 61 62 63 64 64
28 28 28 29 30 31 32 33 35 37 38 40 41 42 42 42 43 43 43 43 45 46 47 48 49 49 50 51 51 52 53 54 55 56 57 58 60 61 61 62 63 64 64
25 26 27 28 29 31 32 34 36 37 39 40 41 42 43 44 44 45 45 47 49 50 51 52 53 53 53 53 54 54 54 55 56 57 58 59 60 60 61 62 63 63 63
24 25 27 28 30 32 33 35 36 38 39 41 42 43 44 45 46 48 49 51 52 53 55 55 56 56 56 55 55 56 55 56 56 57 58 59 59 60 61 61 60 60 60
25 27 28 30 31 33 34 36 37 39 40 42 44 45 47 49 51 53 54 56 57 58 59 59 59 58 57 56 56 56 56 56 56 57 57 57 57 57 57 57 57 58 59
29 30 32 33 34 36 37 38 40 42 43 45 47 48 50 52 54 56 58 60 61 61 61 60 59 58 57 56 56 55 55 55 55 55 55 55 54 54 54 54 55 56 56
33 35 36 37 38 38 40 41 42 44 46 48 50 51 54 56 57 59 60 61 61 61 61 60 59 58 57 56 56 55 54 54 54 53 52 51 51 51 52 53 53 53 53
36 37 38 39 40 41 43 44 46 48 49 51 52 54 56 58 59 60 60 60 61 60 59 59 58 57 56 55 54 53 52 51 50 50 49 49 50 50 50 51 50 49 48
39 39 40 41 42 43 45 47 48 49 51 53 54 55 57 58 59 59 59 59 59 59 58 57 56 55 54 53 52 50 49 48 48 48 48 48 48 48 48 47 45 43 42
40 41 42 43 44 45 46 48 49 50 52 54 55 55 56 57 57 57 57 57 56 56 55 54 53 52 51 50 48 47 47 46 46 46 46 47 46 45 44 42 39 37 33
39 40 41 42 43 44 46 48 49 50 51 53 53 54 54 55 54 54 54 53 52 51 50 50 49 49 48 47 47 46 45 45 44 44 44 43 42 40 37 34 32 29 28
39 40 41 42 43 44 45 47 48 49 50 50 51 52 52 51 50 50 49 49 48 48 47 47 47 46 46 45 44 44 44 43 42 41 39 37 35 31 28 25 24 23 22
38 39 40 41 42 43 44 45 46 47 48 49 49 48 47 47 46 46 45 45 45 45 45 45 45 45 44 43 43 42 41 39 38 35 32 29 25 22 20 19 18 17 18
37 38 39 40 41 42 43 44 45 45 45 45 44 44 44 43 43 43 43 44 44 44 44 44 43 42 41 40 38 36 34 32 30 27 24 20 16 14 14 14 14 15 16
35 36 37 38 39 40 41 41 41 41 41 41 40 40 41 41 42 42 42 42 42 42 41 39 38 36 34 32 30 28 26 24 21 18 15 11 10 9 10 11 12 13 14
33 34 35 36 37 37 37 37 37 37 37 38 38 39 40 41 41 41 40 39 38 36 34 33 31 29 27 25 23 20 18 16 13 10 7 5 6 7 8 10 11 12 13
30 31 32 32 32 32 32 32 33 34 36 37 38 39 39 39 38 36 34 32 30 28 26 25 23 22 20 18 16 14 11 8 5 2 2 3 4 6 8 9 10 11 13
26 26 26 26 26 27 28 30 32 34 35 36 36 36 35 33 31 28 26 24 22 20 19 18 17 16 14 12 9 6 3 1 2 2 2 3 5 6 7 9 10 12 13
21 21 21 22 23 25 28 30 32 33 33 33 32 30 28 25 23 20 18 17 16 14 13 12 11 9 7 5 2 2 4 5 5 5 5 6 7 8 9 10 12 13 14
Wind_Direction
254 256 260 262 265 268 269 272 275 275 277 281 285 288 290 292 294 297 295 298 298 300 298 290 286 284 280 275 269 271 268 271 272 273 275 280 282 283 284 284 284 284 283
256 260 264 266 266 267 268 270 273 275 277 280 283 286 289 291 293 298 299 301 303 302 302 297 294 292 284 279 276 272 269 274 277 279 282 286 287 287 287 288 288 288 287
259 263 265 267 267 266 266 268 270 273 275 279 281 284 287 290 294 298 301 302 306 307 306 306 306 302 294 288 282 280 279 281 284 288 289 291 292 292 290 289 290 290 289
261 264 265 266 266 264 264 266 268 271 274 277 280 284 287 290 294 298 301 305 307 310 312 315 313 310 306 300 297 294 290 289 291 292 292 291 292 294 294 293 292 291 290
264 264 264 264 263 262 262 263 266 269 273 276 280 283 286 289 292 296 298 302 306 309 311 313 312 311 309 306 303 301 297 294 296 296 294 293 293 293 293 294 294 292 290
264 265 264 263 261 260 261 262 264 268 271 275 278 281 283 286 289 292 296 300 304 306 307 309 310 308 307 305 303 301 298 297 297 296 295 293 293 292 292 292 291 290 290
263 263 263 260 259 260 260 261 263 266 270 273 276 279 281 284 288 291 295 299 302 304 305 307 307 306 304 302 300 300 298 297 296 295 293 292 292 291 291 290 290 289 288
259 260 259 258 258 259 259 259 261 264 268 271 274 277 280 284 288 291 295 298 300 302 303 304 304 303 302 301 299 298 296 295 294 293 292 291 291 290 289 289 288 288 288
257 257 256 257 258 258 259 259 261 263 266 270 273 277 281 285 289 292 295 297 298 300 301 301 302 302 300 299 297 296 295 294 292 291 290 290 289 289 289 289 289 288 288
257 257 257 257 257 258 258 260 262 265 268 271 275 279 283 286 290 293 296 298 299 300 300 301 301 300 299 298 296 295 293 292 290 290 290 289 289 289 289 289 289 289 289
257 257 257 258 259 260 261 263 266 269 271 274 277 281 285 287 290 293 296 298 299 299 299 299 299 299 298 297 295 294 293 291 290 290 290 290 290 290 290 290 291 291 291
258 259 260 261 263 264 267 268 271 273 275 278 280 283 286 288 290 293 295 297 298 299 299 299 299 298 297 295 294 293 292 292 291 291 290 290 291 291 291 292 292 292 293
262 263 264 266 268 270 271 273 275 277 279 281 283 285 287 289 291 292 294 296 297 297 297 298 297 296 296 295 294 293 292 292 291 291 291 292 292 292 293 293 294 295 295
267 268 269 270 271 273 275 277 279 281 283 284 285 287 288 290 291 293 294 295 295 296 296 296 296 295 295 294 294 294 293 293 293 293 293 293 294 295 295 296 297 297 298
270 271 272 273 275 277 279 281 283 284 285 286 287 289 290 291 292 293 293 294 294 295 295 295 294 294 294 294 294 294 294 294 294 294 294 295 296 297 298 299 299 300 300
271 272 274 275 277 280 282 283 284 285 287 288 289 290 291 291 292 292 293 293 293 294 294 294 294 294 294 294 294 294 295 295 295 296 296 297 299 300 300 301 301 301 302
274 276 276 277 279 281 282 283 285 287 288 289 289 290 291 292 292 293 293 293 293 294 293 294 294 294 294 294 294 295 295 296 296 297 298 300 301 302 302 302 303 304 304
275 275 277 279 281 283 284 286 287 288 289 290 291 291 292 293 293 293 293 293 293 293 293 293 294 294 294 294 295 295 296 297 298 298 300 301 302 302 303 304 305 307 308
275 278 281 282 284 286 287 288 289 291 291 292 293 293 293 294 294 293 293 292 292 293 293 294 294 294 294 295 295 296 297 297 298 299 300 301 302 303 304 306 308 311 314
278 280 282 284 286 288 289 290 291 292 293 293 294 294 294 294 294 294 294 294 294 294 294 294 295 295 295 296 296 296 297 298 298 299 300 300 301 303 306 309 314 317 320
280 281 283 286 288 290 292 293 294 294 294 295 295 295 295 295 295 295 295 295 295 295 296 296 296 296 295 295 295 296 296 297 298 299 300 301 303 305 310 316 321 324 327
283 285 287 289 291 292 293 294 295 296 296 296 296 296 296 296 296 296 296 296 297 296 296 297 296 296 296 296 296 296 296 296 297 298 299 301 306 314 321 327 331 334 337
287 289 290 292 294 295 296 297 297 298 298 298 299 299 299 299 299 299 299 298 298 298 298 298 298 297 297 298 297 297 296 296 296 295 297 309 322 331 336 340 344 346 349
290 292 293 295 296 297 298 299 300 301 301 302 302 302 302 302 301 301 300 300 300 300 300 300 300 300 300 299 298 296 294 292 288 289 328 345 351 354 355 358 360 0 1
294 296 298 299 300 302 303 305 306 306 307 307 307 306 306 305 305 305 304 304 303 304 304 305 305 305 305 303 301 298 291 236 132 101 68 45 30 23 19 20 19 17 15
299 301 303 305 307 310 311 312 313 313 313 312 312 311 311 311 310 309 308 308 310 311 313 314 316 317 318 319 330 99 117 114 104 89 76 61 49 42 39 36 32 31 30
Height
5873 5874 5875 5875 5875 5875 5875 5874 5873 5872 5870 5868 5867 5865 5863 5860 5858 5855 5852 5848 5844 5840 5836 5833 5830 5828 5827 5826 5824 5823 5823 5822 5822 5821 5820 5819 5818 5817 5815 5813 5811 5809 5807
5868 5868 5869 5869 5870 5870 5870 5869 5868 5867 5865 5864 5862 5860 5857 5855 5852 5849 5846 5843 5839 5834 5829 5826 5824 5822 5820 5818 5817 5816 5816 5815 5814 5813 5811 5811 5811 5809 5806 5804 5801 5799 5796
5861 5862 5862 5863 5863 5864 5864 5863 5862 5861 5860 5858 5856 5854 5852 5849 5845 5843 5840 5837 5833 5828 5824 5821 5818 5815 5813 5811 5810 5809 5808 5807 5807 5805 5803 5802 5800 5798 5797 5794 5790 5787 5784
5854 5855 5855 5856 5856 5857 5857 5857 5856 5856 5854 5853 5851 5848 5846 5843 5840 5836 5833 5830 5826 5822 5819 5816 5813 5810 5808 5807 5805 5803 5801 5800 5798 5797 5794 5792 5790 5786 5783 5781 5778 5774 5770
5846 5847 5847 5848 5849 5849 5850 5850 5850 5849 5848 5846 5844 5842 5839 5836 5833 5830 5827 5824 5821 5817 5815 5812 5809 5806 5804 5802 5799 5797 5794 5792 5790 5787 5785 5782 5778 5774 5770 5766 5763 5759 5755
5837 5838 5839 5840 5841 5842 5842 5842 5842 5841 5840 5839 5837 5834 5832 5829 5826 5823 5820 5817 5814 5811 5808 5805 5803 5800 5797 5795 5792 5789 5786 5783 5779 5776 5773 5769 5765 5761 5756 5752 5748 5743 5739
5829 5830 5831 5832 5833 5834 5834 5834 5834 5833 5832 5830 5828 5826 5823 5820 5818 5815 5812 5809 5806 5802 5799 5797 5794 5792 5789 5786 5782 5779 5775 5771 5768 5764 5760 5756 5751 5747 5742 5737 5732 5727 5722
5821 5822 5823 5824 5825 5826 5826 5826 5825 5824 5823 5821 5819 5816 5814 5811 5809 5806 5803 5799 5796 5793 5790 5787 5784 5781 5778 5775 5771 5767 5763 5759 5755 5750 5746 5741 5736 5732 5727 5721 5716 5711 5706
5814 5815 5816 5817 5817 5818 5818 5817 5817 5816 5814 5812 5810 5808 5805 5802 5799 5795 5792 5789 5786 5783 5779 5776 5773 5769 5766 5762 5758 5754 5750 5745 5740 5736 5731 5726 5721 5716 5710 5704 5698 5693 5689
5807 5808 5809 5809 5810 5810 5809 5809 5808 5807 5805 5803 5801 5798 5795 5792 5788 5785 5781 5778 5775 5771 5767 5764 5760 5756 5752 5748 5744 5739 5735 5730 5725 5720 5715 5710 5704 5699 5693 5688 5681 5675 5670
5800 5801 5801 5801 5801 5801 5801 5800 5799 5798 5796 5793 5791 5788 5785 5781 5777 5773 5770 5766 5762 5758 5754 5750 5746 5742 5738 5733 5729 5724 5719 5714 5710 5704 5699 5694 5689 5683 5677 5671 5665 5659 5653
5793 5793 5793 5793 5793 5792 5792 5791 5789 5787 5785 5782 5780 5777 5773 5770 5766 5762 5757 5753 5749 5744 5740 5735 5731 5726 5722 5717 5713 5708 5703 5699 5694 5689 5683 5678 5673 5667 5661 5656 5649 5643 5637
5786 5785 5785 5784 5784 5783 5782 5780 5779 5776 5774 5771 5768 5765 5761 5757 5753 5749 5744 5739 5735 5730 5725 5720 5715 5711 5706 5701 5697 5692 5688 5683 5678 5673 5668 5663 5658 5652 5646 5641 5634 5628 5621
5777 5776 5776 5775 5774 5773 5771 5769 5767 5765 5762 5759 5756 5752 5748 5744 5740 5735 5730 5725 5720 5715 5710 5705 5700 5695 5690 5686 5681 5677 5673 5668 5663 5658 5653 5648 5643 5638 5632 5626 5620 5613 5607
5767 5767 5765 5764 5763 5761 5760 5757 5755 5752 5749 5746 5742 5738 5734 5730 5725 5720 5715 5710 5705 5700 5694 5689 5685 5680 5675 5671 5666 5662 5658 5653 5649 5644 5639 5635 5630 5624 5618 5612 5606 5600 5594
5757 5756 5755 5753 5751 5750 5748 5745 5742 5739 5736 5732 5728 5724 5719 5715 5710 5705 5700 5695 5689 5684 5679 5674 5670 5665 5661 5656 5652 5648 5644 5640 5635 5631 5626 5621 5617 5611 5606 5600 5594 5588 5583
5746 5745 5743 5742 5740 5737 5735 5732 5728 5725 5722 5718 5714 5709 5704 5700 5695 5689 5684 5679 5674 5670 5665 5660 5655 5651 5647 5643 5639 5635 5631 5627 5623 5618 5614 5609 5604 5599 5594 5588 5583 5578 5573
5736 5734 5732 5730 5728 5725 5722 5719 5716 5712 5707 5703 5699 5694 5690 5685 5680 5675 5670 5665 5660 5656 5651 5646 5642 5638 5634 5630 5626 5622 5619 5615 5611 5607 5602 5598 5593 5588 5584 5579 5574 5570 5566
5726 5724 5722 5720 5717 5714 5710 5707 5703 5698 5694 5690 5685 5680 5675 5671 5666 5661 5656 5651 5647 5642 5638 5634 5629 5625 5622 5618 5614 5610 5607 5604 5600 5596 5592 5588 5584 5580 5576 5572 5569 5565 5561
5716 5714 5712 5709 5706 5702 5698 5694 5690 5686 5681 5677 5672 5667 5662 5657 5653 5648 5644 5639 5634 5630 5625 5621 5617 5613 5610 5606 5602 5599 5596 5592 5589 5586 5583 5580 5577 5574 5571 5568 5565 5561 5558
5707 5705 5702 5699 5695 5691 5687 5683 5678 5674 5669 5664 5659 5654 5650 5645 5641 5636 5632 5627 5622 5618 5614 5610 5606 5602 5598 5595 5592 5589 5586 5583 5580 5578 5576 5573 5572 5569 5567 5565 5562 5559 5555
5698 5695 5692 5689 5685 5681 5677 5672 5668 5663 5658 5653 5648 5644 5639 5634 5629 5625 5620 5615 5611 5607 5602 5599 5595 5591 5588 5585 5583 5580 5578 5575 5573 5572 5571 5569 5568 5567 5565 5563 5560 5557 5554
5689 5687 5683 5680 5676 5672 5667 5663 5658 5653 5648 5643 5638 5633 5628 5623 5618 5613 5609 5604 5600 5596 5593 5589 5586 5583 5580 5577 5575 5573 5572 5570 5569 5568 5568 5567 5566 5565 5564 5562 5559 5556 5553
5681 5679 5675 5672 5668 5664 5659 5654 5650 5644 5639 5634 5628 5623 5617 5612 5607 5603 5599 5595 5591 5588 5585 5582 5579 5576 5574 5572 5570 5569 5568 5567 5567 5567 5567 5567 5566 5565 5563 5561 5559 5556 5552
5675 5672 5669 5665 5661 5657 5652 5647 5642 5636 5630 5624 5618 5613 5608 5603 5598 5595 5591 5588 5585 5582 5579 5576 5574 5571 5569 5568 5566 5566 5566 5566 5566 5567 5567 5567 5566 5565 5563 5561 5559 5556 5552
5669 5666 5663 5660 5655 5651 5646 5640 5634 5628 5622 5616 5610 5605 5600 5596 5592 5589 5586 5583 5581 5578 5576 5573 5571 5569 5567 5566 5566 5566 5566 5567 5567 5568 5568 5567 5567 5565 5564 5562 5560 5557 5554